Location: Unspecified
(51.0950°N, 12.9690°E)
Time: 17:26:41
(UTC+00:00)

CZ-4C R/B - Pass Details

Date: 28 October 2021
Orbit: 403 x 482 km, 97.7° (Epoch: 02 December)

Event Time Altitude Azimuth Distance (km) Brightness Sun altitude
Exits shadow 17:36:15 11° 17° (NNE) 1,475 5.3 -17.3°
Maximum altitude 17:39:23 77° 104° (ESE) 446 2.6 -17.8°
Drops below altitude 10° 17:42:35 10° 190° (S) 1,501 5.6 -18.3°
Sets 17:44:33 0° 192° (SSW) 2,348 6.7 -18.6°
